Tracking 28790 objects as of 19-Apr-2024
HD Live streaming from Space Station
objects crossing your sky now

FENGYUN 1C DEB

Track FENGYUN 1C DEB now!
10-day predictions


NORAD ID: 30216
Int'l Code: 1999-025VZ
Perigee: 290.9 km
Apogee: 310.1 km
Inclination: 99.0 °
Period: 90.4 minutes
Semi major axis: 6671 km
RCS: 0.0219 m2 (small)
Launch date: May 10, 1999
Source: People's Republic of China (PRC)
Launch site: Taiyaun Space Center, China (TSC)

Note: This is SATELLITE DEBRIS
Your satellite tracking list
Your tracking list is empty




NASA's NSSDC Master Catalog

Two Line Element Set (TLE):
1 30216U 99025VZ  24109.74532912  .05805639  52164-1  21209-1 0  9996
2 30216  98.9993  30.6989 0014352 176.3640 183.7736 15.93184818917930
Source of the keplerian elements: AFSPC